Meath Environmental Platform

Observations for Trim Market St

Time AQI Temp °C Hum % Pres Pa CO μg/m³ H₂S μg/m³ NO μg/m³ NO₂ μg/m³ O₃ μg/m³ SO₂ μg/m³ PM1 μg/m³ PM2.5 μg/m³ PM10 μg/m³
Saturday 11 July 2026
16:40 1 36.1 34 66,227 0 12.81 0 10.22 33.61 1.51 3.56 5.85 6.43
16:39 1 36.2 33 66,233 0 11.88 0 12.11 35.85 1 2.85 6.39 6.68
16:38 1 36.2 33 66,274 0 9.45 0 7.23 24.74 0.61 2.85 5.87 7.52
16:37 1 36.2 33 66,297 0 5.12 0 9.03 17.2 1.1 2.85 5.87 6.45
16:36 1 36.3 33 66,329 0 1.46 0 6.7 16.75 0.74 4.28 8.01 9.21
16:35 1 36.3 33 66,303 0 2.33 0 7.7 17.99 0.82 3.56 6.94 7.52
16:34 1 36.3 34 66,321 0 3.82 0 10.27 24.13 0.5 2.14 5.85 6.44
16:33 1 36.2 34 66,317 0 0 0 5.89 9.29 1.16 2.85 6.38 6.68
16:32 1 36.2 34 66,315 0 0.66 0 8.08 17.8 0.92 4.28 6.92 7.53
16:30 1 36.1 34 66,276 0 12.79 0 14.19 27.94 0.97 4.28 7.45 8.37
16:28 1 36 34 66,252 0 10.28 0 8.24 25.44 1.29 3.56 7.46 8.37
16:27 1 36 34 66,266 0 9.55 0 8.75 27.25 0.95 2.14 5.31 5.84
16:20 1 36.1 33 66,362 0 9.51 0 34.18 7.3 0 3.56 8.03 10.06
16:19 1 36.2 33 66,378 0 9.18 0 13.68 22.04 1.18 3.56 6.96 7.52
16:13 1 36.8 32 66,491 0 5.46 0 2.6 16.2 2.44 2.85 6.46 7.52
16:12 1 36.9 32 66,507 0 10.62 0 12.58 27.75 1.62 2.85 5.93 6.67
16:10 1 37 32 66,535 0 3.09 0 5.37 16.73 2.33 3.56 7.55 9.23
16:09 1 37.1 32 66,562 0 0.78 0 8.54 14.2 2.26 3.56 6.47 8.38
16:07 1 37.1 32 66,570 0 0 0 4.07 17.03 2.33 2.14 5.4 5.94
16:06 1 37.2 32 66,568 0 0 0 6.15 14.58 2.49 4.28 7.03 9.23